Temp
13 13 13 13 13 13 13 13 13 13 13 13 13 13 13 13 13 13 13 13 13 13 13 13 13 13 13 13 13 13 13 13 13 13 13 13 12 12 12 13 12 13
13 13 13 13 13 13 13 13 13 13 13 13 13 12 13 12 12 13 13 13 13 13 13 13 13 13 13 13 13 13 13 13 13 13 13 13 12 12 12 13 13 12
13 13 13 13 13 13 13 13 13 13 13 13 13 13 12 12 12 12 13 13 13 13 13 13 13 13 13 13 13 13 13 13 13 13 13 13 12 12 12 12 13 13
14 13 13 12 13 13 13 13 13 13 13 13 13 13 12 12 12 12 13 13 13 13 13 13 13 13 13 13 13 13 13 13 13 13 13 13 13 12 12 12 12 13
14 13 13 12 13 13 13 13 13 13 13 13 13 13 12 12 12 12 13 13 13 13 13 13 13 13 13 13 13 13 13 13 13 13 13 12 12 12 12 12 12 12
14 13 13 12 12 13 13 13 13 13 13 13 13 13 12 12 12 12 12 13 13 13 13 13 13 13 13 13 13 13 13 13 13 13 12 12 12 12 12 12 12 12
14 13 13 13 12 12 13 13 13 12 13 13 12 12 12 12 12 12 12 12 12 13 13 13 13 13 13 13 13 13 13 13 13 13 12 12 12 12 12 12 12 12
14 13 13 13 12 12 12 13 13 13 12 13 12 12 12 12 12 12 12 12 12 12 13 13 12 13 13 13 13 13 13 13 13 13 12 12 12 12 12 12 12 12
14 13 13 12 12 12 12 13 13 13 13 13 12 12 12 12 12 12 12 12 12 12 12 12 12 12 13 13 13 13 13 12 12 13 13 12 13 12 12 12 12 12
13 13 12 12 12 12 12 12 13 13 13 13 12 12 12 12 12 12 12 12 12 12 12 12 12 12 12 12 12 12 12 12 12 12 12 13 13 13 12 12 12 12
13 13 12 12 12 12 12 12 13 13 13 13 12 12 12 12 12 12 12 12 12 12 12 12 12 12 12 12 12 12 12 12 12 12 12 13 13 13 12 12 12 12
12 13 13 12 12 12 12 12 12 13 13 12 12 12 12 12 12 12 12 12 12 12 12 12 12 12 12 12 12 12 12 13 12 12 12 12 12 12 12 12 12 12
12 12 12 12 12 12 12 12 12 12 12 12 12 12 12 12 12 12 12 12 12 12 12 12 12 12 12 12 12 12 12 12 12 12 12 12 12 12 12 12 12 12
12 12 12 12 12 12 12 12 12 12 12 13 12 12 12 12 12 12 12 12 12 12 11 12 12 12 12 12 12 12 12 12 12 12 12 12 12 12 12 12 11 11
12 12 12 12 12 12 12 12 12 12 12 13 12 12 12 12 12 12 12 12 12 12 11 12 12 12 12 12 12 12 12 12 12 12 12 12 12 12 12 12 11 12
12 12 12 12 12 12 11 12 12 12 12 12 12 12 12 12 12 12 12 12 12 12 12 12 12 12 12 12 12 12 12 12 12 12 12 12 12 12 12 12 11 12
11 11 12 11 12 11 11 12 12 11 12 12 12 12 12 12 12 12 12 12 12 12 12 12 12 12 12 12 12 12 12 12 12 12 12 12 12 12 12 12 12 12
11 11 12 11 11 11 11 12 12 11 11 12 12 12 12 12 12 12 12 12 12 12 12 12 12 12 12 12 12 12 12 12 12 12 12 12 12 12 12 12 12 12
10 11 11 11 11 11 11 12 12 11 11 12 12 12 12 12 12 12 12 12 12 12 12 12 12 12 12 12 12 12 12 12 12 12 12 12 12 12 12 12 12 12
10 11 11 11 11 11 11 12 12 11 11 12 12 12 12 12 12 12 12 12 12 12 12 12 12 12 12 12 12 12 12 12 12 12 12 12 12 12 12 12 12 12
10 10 11 11 11 11 11 12 11 11 11 12 11 12 12 12 12 12 12 12 12 12 12 12 12 12 11 11 12 11 11 12 12 12 12 12 12 11 11 11 11 11
9 10 10 11 11 11 11 11 11 11 11 12 11 12 12 12 12 11 12 12 12 12 12 12 12 11 11 11 11 11 11 11 12 12 12 12 11 11 11 11 11 11
9 9 10 10 10 10 11 11 11 11 11 11 11 12 11 11 11 11 11 11 11 11 11 12 11 11 11 11 11 11 11 11 11 11 11 11 11 11 11 11 11 11
9 9 9 10 10 10 11 10 10 11 11 11 11 11 11 11 11 11 10 10 11 11 11 11 11 11 11 11 11 11 11 11 11 11 11 10 10 10 10 10 10 10
8 8 8 9 9 10 10 10 10 10 10 10 10 10 10 10 10 10 10 10 10 10 10 11 11 11 10 10 11 11 11 11 11 11 10 10 10 9 10 10 10 10
8 8 7 7 8 8 8 8 8 9 9 9 9 9 9 9 10 10 10 10 10 10 10 10 10 10 10 10 10 10 10 10 10 10 10 10 10 10 10 10 10 10
Height
1510 1512 1513 1515 1517 1518 1520 1522 1523 1525 1526 1528 1529 1530 1532 1533 1534 1535 1536 1538 1539 1540 1541 1542 1543 1545 1546 1547 1548 1549 1549 1550 1550 1551 1552 1553 1553 1554 1554 1555 1555 1556
1510 1511 1512 1514 1516 1518 1520 1521 1522 1524 1526 1527 1529 1531 1532 1533 1534 1535 1536 1537 1538 1539 1541 1542 1543 1544 1545 1546 1547 1548 1549 1549 1550 1550 1551 1551 1552 1553 1553 1554 1555 1555
1509 1511 1512 1513 1515 1517 1519 1521 1522 1524 1525 1527 1529 1530 1532 1533 1534 1535 1536 1537 1538 1539 1540 1541 1543 1543 1544 1545 1546 1547 1548 1548 1549 1550 1550 1551 1551 1552 1553 1553 1554 1555
1508 1510 1511 1513 1515 1517 1518 1520 1522 1524 1525 1527 1528 1530 1531 1532 1534 1535 1536 1537 1538 1539 1540 1541 1542 1543 1544 1545 1546 1546 1547 1548 1549 1549 1550 1550 1551 1552 1552 1553 1554 1555
1507 1509 1511 1513 1515 1516 1517 1519 1521 1523 1525 1526 1528 1529 1531 1532 1533 1534 1535 1536 1537 1538 1539 1540 1542 1543 1544 1544 1545 1546 1546 1547 1548 1549 1549 1550 1550 1551 1552 1552 1553 1554
1506 1508 1510 1512 1514 1515 1516 1518 1520 1522 1524 1526 1528 1529 1530 1532 1533 1534 1535 1536 1537 1538 1539 1540 1541 1542 1543 1543 1544 1545 1546 1547 1547 1548 1549 1550 1550 1551 1552 1552 1553 1554
1503 1506 1508 1510 1512 1513 1515 1516 1519 1521 1523 1526 1527 1529 1530 1531 1532 1533 1534 1536 1537 1537 1538 1539 1540 1541 1542 1542 1543 1544 1545 1546 1547 1548 1549 1549 1550 1551 1551 1552 1554 1554
1500 1502 1505 1508 1510 1512 1514 1515 1517 1520 1522 1525 1527 1528 1530 1530 1531 1532 1534 1535 1536 1537 1538 1539 1540 1540 1541 1542 1542 1543 1544 1545 1546 1547 1548 1549 1550 1551 1551 1552 1553 1555
1498 1500 1503 1506 1508 1511 1513 1514 1516 1518 1521 1524 1526 1528 1530 1531 1531 1532 1533 1534 1535 1536 1537 1538 1540 1540 1541 1542 1542 1543 1544 1545 1546 1547 1548 1549 1549 1550 1551 1552 1553 1555
1497 1499 1502 1505 1508 1510 1512 1513 1514 1516 1519 1522 1525 1527 1529 1530 1531 1533 1533 1533 1534 1535 1536 1538 1539 1540 1541 1542 1542 1543 1544 1544 1545 1546 1548 1548 1549 1550 1551 1552 1553 1554
1496 1499 1502 1505 1507 1509 1510 1512 1513 1515 1518 1521 1524 1526 1528 1529 1531 1532 1532 1533 1533 1535 1536 1538 1539 1540 1541 1542 1542 1543 1544 1544 1545 1546 1547 1548 1549 1550 1550 1551 1553 1554
1495 1497 1500 1503 1505 1506 1508 1510 1511 1513 1516 1519 1522 1525 1527 1529 1530 1531 1532 1532 1533 1535 1536 1537 1539 1540 1541 1542 1542 1543 1543 1544 1545 1546 1547 1548 1549 1549 1550 1551 1553 1554
1493 1495 1497 1500 1501 1503 1505 1507 1509 1512 1514 1518 1521 1523 1526 1528 1529 1530 1531 1532 1533 1534 1536 1537 1538 1540 1541 1541 1542 1543 1543 1544 1545 1546 1547 1548 1549 1549 1550 1550 1551 1552
1491 1493 1496 1498 1500 1502 1503 1505 1507 1510 1513 1516 1519 1522 1525 1527 1528 1529 1530 1531 1532 1534 1535 1537 1538 1539 1540 1541 1542 1542 1543 1544 1545 1546 1547 1548 1549 1549 1549 1549 1549 1551
1488 1491 1494 1496 1499 1502 1503 1504 1507 1510 1512 1515 1518 1521 1524 1525 1526 1528 1529 1531 1532 1533 1535 1537 1538 1539 1540 1541 1541 1542 1543 1544 1544 1546 1547 1548 1549 1549 1550 1550 1551 1552
1486 1488 1491 1494 1497 1501 1504 1505 1507 1509 1511 1514 1517 1520 1522 1523 1525 1527 1529 1530 1532 1533 1535 1536 1537 1539 1540 1540 1541 1542 1543 1544 1544 1545 1547 1548 1549 1549 1550 1551 1552 1553
1484 1486 1488 1492 1495 1500 1503 1504 1506 1509 1510 1512 1515 1518 1520 1522 1524 1526 1528 1530 1532 1533 1534 1535 1537 1538 1539 1540 1541 1541 1542 1543 1544 1545 1546 1548 1549 1549 1550 1551 1552 1553
1484 1484 1486 1490 1494 1498 1501 1503 1505 1509 1509 1510 1514 1517 1519 1521 1523 1525 1527 1529 1531 1532 1534 1535 1536 1537 1539 1540 1541 1541 1542 1543 1544 1545 1546 1547 1548 1549 1550 1551 1552 1553
1482 1483 1485 1489 1493 1496 1500 1501 1504 1508 1508 1509 1512 1515 1518 1520 1522 1524 1526 1528 1530 1531 1533 1534 1535 1537 1538 1539 1540 1541 1542 1543 1544 1545 1546 1547 1548 1549 1550 1551 1552 1553
1482 1483 1485 1488 1491 1495 1498 1500 1503 1507 1507 1508 1512 1514 1517 1519 1521 1523 1525 1527 1529 1530 1532 1533 1535 1537 1538 1539 1540 1541 1542 1543 1544 1545 1546 1547 1548 1549 1550 1551 1552 1552
1483 1483 1486 1488 1491 1494 1497 1499 1503 1506 1506 1508 1511 1514 1516 1519 1520 1523 1525 1526 1528 1530 1531 1533 1535 1536 1537 1538 1539 1540 1541 1543 1544 1545 1546 1547 1548 1548 1549 1550 1551 1552
1485 1484 1486 1488 1491 1494 1496 1499 1503 1506 1507 1508 1511 1513 1515 1518 1520 1522 1524 1526 1527 1529 1531 1533 1534 1536 1537 1538 1539 1540 1541 1542 1543 1544 1545 1546 1547 1548 1548 1549 1550 1551
1487 1486 1486 1489 1491 1494 1496 1500 1503 1506 1508 1509 1511 1512 1514 1517 1519 1522 1524 1525 1527 1529 1530 1532 1534 1536 1537 1538 1538 1539 1540 1541 1543 1544 1544 1545 1546 1547 1548 1548 1549 1550
1491 1490 1488 1489 1491 1494 1498 1500 1502 1504 1507 1510 1511 1512 1513 1516 1518 1521 1523 1525 1526 1528 1530 1532 1533 1535 1536 1537 1538 1539 1540 1540 1542 1543 1543 1543 1544 1545 1546 1547 1548 1548
1495 1494 1492 1490 1492 1494 1498 1501 1502 1503 1506 1508 1510 1511 1513 1515 1518 1519 1522 1524 1526 1527 1529 1531 1532 1533 1534 1536 1537 1538 1539 1539 1540 1541 1541 1543 1544 1545 1545 1546 1546 1547
1497 1498 1498 1496 1496 1496 1499 1502 1504 1506 1507 1508 1510 1511 1512 1514 1517 1518 1520 1523 1525 1526 1528 1530 1532 1533 1534 1535 1536 1537 1538 1538 1539 1539 1540 1541 1543 1544 1545 1545 1545 1546
Wind_Speed
21 20 19 19 17 17 18 19 21 23 24 23 22 20 19 19 17 17 18 18 17 17 16 15 16 15 16 16 15 15 16 15 15 15 15 15 15 15 14 14 14 15
20 20 19 18 17 18 19 20 23 25 24 22 21 19 19 18 17 17 17 18 17 18 17 16 16 15 15 16 16 16 16 15 15 15 15 15 15 15 15 15 14 14
18 20 19 17 18 20 21 22 25 25 23 23 21 19 19 19 18 17 17 17 17 17 17 16 16 16 16 16 16 16 15 15 15 15 15 15 15 15 15 14 14 14
17 19 19 18 18 20 22 24 26 23 22 24 22 19 20 21 20 18 18 17 17 17 16 17 17 17 16 15 15 15 14 14 14 14 15 15 13 13 14 14 14 14
16 18 18 18 19 21 23 25 25 22 21 22 20 19 21 23 21 19 19 18 16 16 16 16 17 17 16 15 15 14 14 15 14 14 15 14 13 14 15 15 15 15
14 16 17 19 20 22 23 25 24 21 20 20 19 20 21 22 21 19 19 18 16 16 17 17 17 16 16 16 15 14 14 15 15 15 15 14 13 14 15 16 16 15
15 17 18 20 22 24 24 24 24 22 20 20 20 20 20 21 20 19 19 17 16 16 18 18 17 16 16 16 16 15 15 15 14 14 14 13 13 14 15 16 16 16
17 19 20 22 24 26 25 24 25 23 22 21 20 20 20 20 19 20 19 16 15 17 19 19 16 15 16 17 16 16 16 14 14 13 13 13 13 14 16 17 17 17
18 20 22 23 26 28 27 25 25 24 23 22 21 20 19 19 20 21 19 15 15 19 20 18 16 15 16 17 17 16 16 15 13 12 11 10 12 13 15 17 17 17
19 20 22 24 27 29 28 26 25 25 24 23 22 21 19 20 21 19 15 14 18 22 21 18 17 17 18 18 16 15 14 12 11 11 9 6 9 13 15 16 18 17
18 20 22 25 28 30 29 27 26 25 25 24 23 22 20 21 20 17 13 15 21 23 22 19 18 17 18 17 14 12 11 11 12 11 8 5 7 13 15 16 18 17
17 21 24 28 31 31 29 28 27 25 25 26 24 22 22 21 19 16 13 15 20 23 22 21 19 18 18 16 14 12 12 13 14 11 8 6 8 13 15 15 16 16
18 22 26 31 33 31 29 29 27 26 26 26 24 23 23 21 18 16 15 14 18 22 22 21 20 18 18 18 16 15 15 14 14 12 9 7 8 11 14 16 17 17
19 21 26 32 32 30 31 30 28 28 28 25 24 25 24 21 19 19 18 16 19 22 20 19 20 18 17 18 17 16 17 15 14 13 11 9 9 10 14 16 17 16
20 22 25 31 32 31 31 30 29 29 27 25 26 27 24 22 21 21 19 17 18 21 19 17 19 17 14 16 18 18 17 16 14 14 13 11 10 11 14 15 15 14
21 23 26 30 32 32 30 29 29 28 26 26 28 28 25 24 23 21 19 18 18 20 19 17 18 17 14 13 15 17 17 15 14 15 16 13 12 13 16 16 16 15
22 24 27 31 32 31 30 29 28 26 28 29 29 28 26 25 24 21 19 19 19 19 18 17 17 17 16 12 12 16 17 15 15 17 17 15 13 15 17 15 15 15
23 26 28 31 32 32 31 29 27 28 30 31 30 29 27 26 24 22 20 20 20 20 18 17 16 17 16 13 13 16 18 16 16 17 18 18 16 16 17 16 15 15
24 26 29 31 32 32 31 30 29 31 32 31 30 29 28 26 25 23 21 20 20 20 19 17 17 17 17 15 13 16 18 18 17 16 17 18 17 16 18 18 16 15
22 26 28 32 33 33 32 31 31 33 33 31 30 29 27 26 25 23 21 21 20 20 19 19 18 17 17 16 14 15 18 19 19 18 17 17 16 16 17 17 16 15
20 25 28 30 33 34 34 33 32 32 31 30 29 28 27 27 26 23 21 21 21 20 19 19 19 18 18 18 16 15 17 19 19 19 18 17 17 17 17 17 16 15
17 23 28 30 32 33 32 31 31 28 27 28 29 28 27 26 25 23 22 22 22 20 20 20 20 19 19 18 18 17 17 18 18 19 19 19 18 17 16 17 16 15
14 20 27 30 31 30 27 28 29 26 25 28 29 29 28 27 25 24 23 23 22 20 20 20 21 20 19 18 18 18 18 19 19 19 20 20 19 18 16 16 15 15
12 18 25 28 29 28 26 27 31 31 29 29 29 30 30 28 27 26 24 22 21 20 20 20 20 20 19 18 17 17 17 18 18 18 19 20 19 17 16 15 13 10
11 11 19 26 30 30 29 30 32 33 32 31 31 31 30 28 27 26 24 22 20 19 18 18 18 19 18 17 17 16 16 16 17 17 18 16 13 10 11 12 11 9
18 15 14 18 23 26 28 28 28 29 29 29 29 30 31 29 27 25 24 22 19 18 17 16 16 17 18 17 18 18 18 17 17 18 17 15 14 13 14 13 13 12
Wind_Direction
214 215 217 218 217 211 204 200 192 186 186 187 187 189 194 195 191 187 186 187 190 190 189 185 182 185 188 191 196 198 198 198 196 199 203 205 207 210 213 210 206 209
215 215 214 213 208 201 198 195 187 184 187 189 189 193 196 194 191 188 186 186 189 192 193 188 184 186 186 186 191 196 198 196 193 195 199 204 208 211 213 210 204 205
211 213 213 207 200 194 192 189 185 186 191 191 193 199 200 197 194 192 190 188 188 190 192 189 186 186 184 183 187 193 196 193 191 193 197 202 206 208 207 205 203 203
205 207 208 201 196 192 187 187 187 189 192 192 194 201 202 199 196 194 193 191 187 186 187 187 186 185 184 183 184 188 191 188 189 194 196 198 200 201 201 200 202 202
204 208 208 197 192 191 188 189 191 189 189 193 195 199 200 199 198 194 190 189 185 182 183 185 185 183 183 183 183 184 183 181 185 192 196 196 196 196 198 200 200 198
203 208 207 196 192 191 189 190 193 191 190 195 197 194 194 196 196 190 189 189 185 181 182 181 180 181 181 182 183 182 179 180 183 188 192 195 195 195 195 198 199 195
205 206 201 196 194 193 189 187 189 191 192 195 195 193 192 193 193 191 190 189 183 179 179 176 173 174 176 178 179 177 177 180 183 185 190 193 193 193 193 194 195 195
210 206 202 199 194 191 189 185 185 189 191 194 195 194 195 196 194 190 188 185 178 175 175 173 169 167 169 173 174 172 172 174 175 178 186 193 193 191 191 192 192 194
215 208 205 201 193 190 188 184 186 189 190 194 196 194 195 198 193 185 183 185 178 173 172 170 165 161 160 161 161 160 160 159 160 163 170 186 195 193 192 193 191 190
218 213 207 198 191 191 190 186 188 190 190 193 195 192 193 192 186 182 185 186 178 172 169 167 164 161 156 154 155 157 161 164 165 162 158 173 195 196 197 195 191 191
216 216 208 196 192 194 192 189 190 191 191 192 192 192 190 182 178 182 184 179 176 173 168 167 167 162 158 160 164 166 170 177 179 174 168 176 194 197 199 195 190 190
215 216 208 196 194 195 193 191 190 191 190 189 190 191 184 175 175 177 168 163 170 172 168 168 169 166 166 169 169 163 161 164 167 166 164 170 183 187 190 191 188 187
218 215 207 198 196 195 193 192 191 191 188 187 191 187 179 176 176 168 157 153 162 166 167 171 173 170 172 176 170 159 157 158 157 159 161 158 166 177 183 187 186 183
230 221 208 200 198 196 194 192 190 189 187 188 190 182 175 178 174 164 161 159 160 163 167 173 175 174 175 180 178 166 163 167 166 167 171 162 156 169 179 182 179 175
237 227 212 204 201 199 198 193 188 187 188 188 184 177 174 177 174 170 169 164 163 167 170 171 175 177 175 178 184 179 173 176 174 171 173 165 158 167 174 171 166 166
238 228 213 205 202 200 199 194 189 187 183 179 176 173 175 176 172 173 173 168 168 171 172 173 175 179 177 173 181 182 176 174 170 166 168 165 158 165 171 170 169 173
235 226 212 202 200 200 198 193 190 185 175 172 173 173 176 176 172 173 176 175 174 173 174 176 176 178 178 172 172 174 171 169 167 166 168 169 163 163 168 169 173 179
232 221 209 201 198 198 195 189 190 187 177 173 175 176 176 176 174 173 175 178 179 177 176 178 177 176 177 178 176 173 170 171 172 169 168 171 170 170 173 173 172 177
228 217 205 199 197 195 191 189 193 192 183 176 177 178 178 179 177 175 176 179 180 180 179 180 179 177 180 183 182 180 178 177 176 173 170 170 171 172 177 181 180 181
213 212 203 196 195 191 187 188 194 190 180 178 180 179 180 181 179 178 178 178 180 181 181 180 179 178 181 183 181 181 183 182 183 182 178 176 177 176 178 183 187 191
191 201 201 194 190 187 185 187 190 184 177 178 180 178 179 181 180 179 178 177 179 181 180 179 177 175 177 181 181 182 184 187 191 192 188 183 181 180 182 186 192 198
173 183 192 190 185 184 184 184 184 180 177 178 177 175 177 179 178 177 176 176 176 178 179 179 176 173 174 178 181 183 185 187 190 192 190 186 182 181 183 185 189 194
162 167 177 183 181 178 178 179 179 180 181 179 176 176 176 176 175 172 170 172 173 174 179 180 176 173 174 177 180 183 185 185 184 182 181 180 178 178 179 181 185 191
152 158 163 170 174 176 182 182 177 176 179 178 176 175 172 171 171 168 165 167 168 171 178 182 180 178 178 181 185 187 192 195 194 189 184 177 170 169 174 179 185 194
95 127 147 157 163 169 178 180 174 170 172 174 172 170 166 165 167 167 164 163 165 169 175 181 184 183 182 187 192 195 202 208 211 212 210 199 188 191 199 198 205 225
79 75 93 122 138 146 152 157 157 154 156 159 158 155 155 157 160 163 163 161 163 167 171 177 183 186 187 193 201 206 211 217 223 231 237 233 230 239 241 231 230 238